Time,TemperatureF,DewpointF,PressureIn,WindDirection,WindDirectionDegrees,WindSpeedMPH,WindSpeedGustMPH,Humidity,HourlyPrecipIn,Conditions,Clouds,dailyrainin,SolarRadiationWatts/m^2,SoftwareType,DateUTC
2013-05-19 00:01:00,43.0,40.0,-100.00,North,-999,-999.0,4.0,87,0.00,,,-99.99,0.000000,,2013-05-19 06:01:00,
2013-05-19 00:11:00,43.0,40.0,-100.00,North,-999,-999.0,3.0,88,0.00,,,-99.99,0.000000,,2013-05-19 06:11:00,
2013-05-19 00:21:00,43.0,40.0,-100.00,North,-999,-999.0,2.0,91,0.00,,,-99.99,0.000000,,2013-05-19 06:21:00,
2013-05-19 00:31:00,43.0,40.0,-100.00,North,-999,-999.0,3.0,91,0.00,,,-99.99,0.000000,,2013-05-19 06:31:00,
2013-05-19 00:42:00,43.0,41.0,-100.00,North,-999,-999.0,4.0,91,0.00,,,-99.99,0.000000,,2013-05-19 06:42:00,
2013-05-19 00:50:00,42.0,40.0,-100.00,North,-999,-999.0,4.0,91,0.00,,,-99.99,0.000000,,2013-05-19 06:50:00,
2013-05-19 00:51:00,43.0,40.0,-100.00,North,-999,-999.0,4.0,90,0.00,,,-99.99,0.000000,,2013-05-19 06:51:00,
2013-05-19 01:01:00,43.0,40.0,-100.00,North,-999,-999.0,4.0,91,0.00,,,-99.99,0.000000,,2013-05-19 07:01:00,
2013-05-19 01:11:00,42.0,40.0,-100.00,North,-999,-999.0,4.0,91,0.00,,,-99.99,0.000000,,2013-05-19 07:11:00,
2013-05-19 01:21:00,42.0,40.0,-100.00,North,-999,-999.0,4.0,91,0.00,,,-99.99,0.000000,,2013-05-19 07:21:00,
2013-05-19 01:32:00,42.0,40.0,-100.00,North,-999,-999.0,4.0,91,0.00,,,-99.99,0.000000,,2013-05-19 07:32:00,
2013-05-19 01:41:00,42.0,40.0,-100.00,North,-999,-999.0,4.0,91,0.00,,,-99.99,0.000000,,2013-05-19 07:41:00,
2013-05-19 02:22:00,48.0,41.0,-100.00,North,-999,-999.0,8.0,76,0.00,,,-99.99,0.000000,,2013-05-19 08:22:00,
2013-05-19 02:32:00,48.0,40.0,-100.00,North,-999,-999.0,8.0,75,0.00,,,-99.99,0.000000,,2013-05-19 08:32:00,
2013-05-19 02:42:00,47.0,41.0,-100.00,North,-999,-999.0,9.0,78,0.00,,,-99.99,0.000000,,2013-05-19 08:42:00,
2013-05-19 02:52:00,47.0,40.0,-100.00,North,-999,-999.0,13.0,78,0.00,,,-99.99,0.000000,,2013-05-19 08:52:00,
2013-05-19 03:02:00,47.0,40.0,-100.00,North,-999,-999.0,11.0,76,0.00,,,-99.99,0.000000,,2013-05-19 09:02:00,
2013-05-19 03:11:00,48.0,40.0,-100.00,North,-999,-999.0,9.0,73,0.00,,,-99.99,0.000000,,2013-05-19 09:11:00,
2013-05-19 03:21:00,47.0,39.0,-100.00,North,-999,-999.0,6.0,75,0.00,,,-99.99,0.000000,,2013-05-19 09:21:00,
2013-05-19 03:32:00,47.0,40.0,-100.00,North,-999,-999.0,11.0,76,0.00,,,-99.99,0.000000,,2013-05-19 09:32:00,
2013-05-19 03:42:00,47.0,39.0,-100.00,North,-999,-999.0,11.0,74,0.00,,,-99.99,0.000000,,2013-05-19 09:42:00,
2013-05-19 03:52:00,45.0,40.0,-100.00,North,-999,-999.0,6.0,83,0.00,,,-99.99,0.000000,,2013-05-19 09:52:00,
2013-05-19 04:02:00,45.0,40.0,-100.00,North,-999,-999.0,5.0,83,0.00,,,-99.99,0.000000,,2013-05-19 10:02:00,
2013-05-19 04:12:00,45.0,41.0,-100.00,North,-999,-999.0,2.0,85,0.00,,,-99.99,0.000000,,2013-05-19 10:12:00,
2013-05-19 04:22:00,46.0,40.0,-100.00,North,-999,-999.0,6.0,79,0.00,,,-99.99,0.000000,,2013-05-19 10:22:00,
2013-05-19 04:32:00,46.0,41.0,-100.00,North,-999,-999.0,6.0,81,0.00,,,-99.99,0.000000,,2013-05-19 10:32:00,
2013-05-19 04:42:00,46.0,40.0,-100.00,North,-999,-999.0,4.0,82,0.00,,,-99.99,0.000000,,2013-05-19 10:42:00,
2013-05-19 04:52:00,46.0,41.0,-100.00,North,-999,-999.0,3.0,84,0.00,,,-99.99,0.000000,,2013-05-19 10:52:00,
2013-05-19 05:02:00,46.0,39.0,-100.00,North,-999,-999.0,6.0,77,0.00,,,-99.99,0.000000,,2013-05-19 11:02:00,
2013-05-19 05:11:00,48.0,39.0,-100.00,North,-999,-999.0,7.0,71,0.00,,,-99.99,0.000000,,2013-05-19 11:11:00,
2013-05-19 05:21:00,48.0,38.0,-100.00,North,-999,-999.0,8.0,69,0.00,,,-99.99,0.000000,,2013-05-19 11:21:00,
2013-05-19 05:32:00,45.0,39.0,-100.00,North,-999,-999.0,8.0,77,0.00,,,-99.99,0.000000,,2013-05-19 11:32:00,
2013-05-19 05:42:00,46.0,38.0,-100.00,North,-999,-999.0,10.0,76,0.00,,,-99.99,0.000000,,2013-05-19 11:42:00,
2013-05-19 05:50:00,43.0,39.0,-100.00,North,-999,-999.0,9.0,84,0.00,,,-99.99,0.000000,,2013-05-19 11:50:00,
2013-05-19 05:52:00,45.0,39.0,-100.00,North,-999,-999.0,6.0,81,0.00,,,-99.99,0.000000,,2013-05-19 11:52:00,
2013-05-19 06:01:00,43.0,38.0,-100.00,North,-999,-999.0,5.0,83,0.00,,,-99.99,0.000000,,2013-05-19 12:01:00,
2013-05-19 06:11:00,43.0,39.0,-100.00,North,-999,-999.0,9.0,84,0.00,,,-99.99,0.000000,,2013-05-19 12:11:00,
2013-05-19 06:21:00,43.0,39.0,-100.00,North,-999,-999.0,9.0,84,0.00,,,-99.99,0.000000,,2013-05-19 12:21:00,
2013-05-19 06:31:00,43.0,39.0,-100.00,North,-999,-999.0,9.0,84,0.00,,,-99.99,0.000000,,2013-05-19 12:31:00,
2013-05-19 06:41:00,43.0,39.0,-100.00,North,-999,-999.0,9.0,84,0.00,,,-99.99,0.000000,,2013-05-19 12:41:00,
2013-05-19 07:21:00,43.0,40.0,-100.00,North,-999,-999.0,4.0,88,0.00,,,-99.99,74.000000,,2013-05-19 13:21:00,
2013-05-19 07:32:00,43.0,40.0,-100.00,North,-999,-999.0,4.0,88,0.00,,,-99.99,74.000000,,2013-05-19 13:32:00,
2013-05-19 07:42:00,47.0,40.0,-100.00,North,-999,-999.0,7.0,77,0.00,,,-99.99,174.000000,,2013-05-19 13:42:00,
2013-05-19 07:52:00,48.0,40.0,-100.00,North,-999,-999.0,7.0,75,0.00,,,-99.99,210.000000,,2013-05-19 13:52:00,
2013-05-19 08:02:00,49.0,40.0,-100.00,North,-999,-999.0,6.0,72,0.00,,,-99.99,247.000000,,2013-05-19 14:02:00,
2013-05-19 08:11:00,50.0,41.0,-100.00,North,-999,-999.0,4.0,69,0.00,,,-99.99,288.000000,,2013-05-19 14:11:00,
2013-05-19 08:21:00,51.0,41.0,-100.00,North,-999,-999.0,4.0,69,0.00,,,-99.99,327.000000,,2013-05-19 14:21:00,
2013-05-19 08:31:00,51.0,41.0,-100.00,North,-999,-999.0,4.0,67,0.00,,,-99.99,366.000000,,2013-05-19 14:31:00,
2013-05-19 08:41:00,51.0,40.0,-100.00,North,-999,-999.0,5.0,66,0.00,,,-99.99,414.000000,,2013-05-19 14:41:00,
2013-05-19 08:51:00,52.0,40.0,-100.00,North,-999,-999.0,3.0,63,0.00,,,-99.99,461.000000,,2013-05-19 14:51:00,
2013-05-19 09:01:00,53.0,40.0,-100.00,North,-999,-999.0,3.0,62,0.00,,,-99.99,502.000000,,2013-05-19 15:01:00,
2013-05-19 09:11:00,54.0,40.0,-100.00,North,-999,-999.0,3.0,59,0.00,,,-99.99,530.000000,,2013-05-19 15:11:00,
2013-05-19 09:21:00,54.0,41.0,-100.00,North,-999,-999.0,3.0,62,0.00,,,-99.99,564.000000,,2013-05-19 15:21:00,
2013-05-19 09:32:00,54.0,40.0,-100.00,North,-999,-999.0,5.0,60,0.00,,,-99.99,608.000000,,2013-05-19 15:32:00,
2013-05-19 09:43:00,54.0,42.0,-100.00,North,-999,-999.0,5.0,64,0.00,,,-99.99,649.000000,,2013-05-19 15:43:00,
2013-05-19 09:53:00,56.0,43.0,-100.00,North,-999,-999.0,6.0,62,0.00,,,-99.99,686.000000,,2013-05-19 15:53:00,
2013-05-19 10:03:00,56.0,42.0,-100.00,North,-999,-999.0,6.0,59,0.00,,,-99.99,734.000000,,2013-05-19 16:03:00,
2013-05-19 10:12:00,57.0,42.0,-100.00,North,-999,-999.0,6.0,57,0.00,,,-99.99,761.000000,,2013-05-19 16:12:00,
2013-05-19 10:23:00,57.0,41.0,-100.00,North,-999,-999.0,5.0,54,0.00,,,-99.99,797.000000,,2013-05-19 16:23:00,
2013-05-19 10:32:00,59.0,43.0,-100.00,North,-999,-999.0,4.0,55,0.00,,,-99.99,836.000000,,2013-05-19 16:32:00,
2013-05-19 10:42:00,58.0,41.0,-100.00,North,-999,-999.0,7.0,53,0.00,,,-99.99,881.000000,,2013-05-19 16:42:00,
2013-05-19 10:50:00,56.0,39.0,-100.00,North,-999,-999.0,7.0,52,0.00,,,-99.99,240.000000,,2013-05-19 16:50:00,
2013-05-19 10:52:00,59.0,42.0,-100.00,North,-999,-999.0,9.0,54,0.00,,,-99.99,1050.000000,,2013-05-19 16:52:00,
2013-05-19 11:01:00,59.0,42.0,-100.00,North,-999,-999.0,9.0,54,0.00,,,-99.99,1050.000000,,2013-05-19 17:01:00,
2013-05-19 11:12:00,56.0,39.0,-100.00,North,-999,-999.0,7.0,52,0.00,,,-99.99,240.000000,,2013-05-19 17:12:00,
2013-05-19 11:22:00,56.0,39.0,-100.00,North,-999,-999.0,7.0,52,0.00,,,-99.99,240.000000,,2013-05-19 17:22:00,
2013-05-19 11:32:00,56.0,39.0,-100.00,North,-999,-999.0,7.0,52,0.00,,,-99.99,240.000000,,2013-05-19 17:32:00,
2013-05-19 11:42:00,56.0,39.0,-100.00,North,-999,-999.0,7.0,52,0.00,,,-99.99,240.000000,,2013-05-19 17:42:00,
2013-05-19 12:22:00,58.0,38.0,-100.00,North,-999,-999.0,6.0,48,0.00,,,-99.99,290.000000,,2013-05-19 18:22:00,
2013-05-19 12:32:00,57.0,40.0,-100.00,North,-999,-999.0,4.0,53,0.00,,,-99.99,326.000000,,2013-05-19 18:32:00,
2013-05-19 12:43:00,58.0,40.0,-100.00,North,-999,-999.0,5.0,51,0.00,,,-99.99,361.000000,,2013-05-19 18:43:00,
2013-05-19 12:53:00,59.0,39.0,-100.00,North,-999,-999.0,6.0,46,0.00,,,-99.99,861.000000,,2013-05-19 18:53:00,
2013-05-19 13:01:00,57.0,43.0,-100.00,North,-999,-999.0,14.0,59,0.00,,,-99.99,173.000000,,2013-05-19 19:01:00,
2013-05-19 13:11:00,50.0,44.0,-100.00,North,-999,-999.0,22.0,77,0.00,,,-99.99,22.000000,,2013-05-19 19:11:00,
2013-05-19 13:21:00,47.0,44.0,-100.00,North,-999,-999.0,17.0,87,0.01,,,-99.99,33.000000,,2013-05-19 19:21:00,
2013-05-19 13:31:00,47.0,44.0,-100.00,North,-999,-999.0,14.0,87,0.01,,,-99.99,82.000000,,2013-05-19 19:31:00,
2013-05-19 13:42:00,49.0,45.0,-100.00,North,-999,-999.0,14.0,86,0.01,,,-99.99,180.000000,,2013-05-19 19:42:00,
2013-05-19 13:52:00,49.0,43.0,-100.00,North,-999,-999.0,13.0,81,0.01,,,-99.99,162.000000,,2013-05-19 19:52:00,
2013-05-19 14:02:00,50.0,43.0,-100.00,North,-999,-999.0,11.0,76,0.01,,,-99.99,258.000000,,2013-05-19 20:02:00,
2013-05-19 14:11:00,51.0,43.0,-100.00,North,-999,-999.0,11.0,73,0.01,,,-99.99,608.000000,,2013-05-19 20:11:00,
2013-05-19 14:21:00,53.0,42.0,-100.00,North,-999,-999.0,11.0,66,0.03,,,-99.99,430.000000,,2013-05-19 20:21:00,
2013-05-19 14:31:00,53.0,41.0,-100.00,North,-999,-999.0,10.0,64,0.03,,,-99.99,441.000000,,2013-05-19 20:31:00,
2013-05-19 14:41:00,54.0,41.0,-100.00,North,-999,-999.0,11.0,61,0.03,,,-99.99,517.000000,,2013-05-19 20:41:00,
2013-05-19 14:51:00,55.0,40.0,-100.00,North,-999,-999.0,9.0,57,0.03,,,-99.99,608.000000,,2013-05-19 20:51:00,
2013-05-19 15:02:00,58.0,40.0,-100.00,North,-999,-999.0,10.0,52,0.03,,,-99.99,879.000000,,2013-05-19 21:02:00,
2013-05-19 15:11:00,56.0,41.0,-100.00,North,-999,-999.0,11.0,56,0.03,,,-99.99,239.000000,,2013-05-19 21:11:00,
2013-05-19 15:22:00,55.0,42.0,-100.00,North,-999,-999.0,9.0,63,0.00,,,-99.99,155.000000,,2013-05-19 21:22:00,
2013-05-19 15:32:00,53.0,40.0,-100.00,North,-999,-999.0,14.0,60,0.00,,,-99.99,441.000000,,2013-05-19 21:32:00,
2013-05-19 15:43:00,55.0,41.0,-100.00,North,-999,-999.0,5.0,58,0.00,,,-99.99,480.000000,,2013-05-19 21:43:00,
2013-05-19 15:50:00,59.0,40.0,-100.00,North,-999,-999.0,8.0,50,0.00,,,-99.99,176.000000,,2013-05-19 21:50:00,
2013-05-19 15:52:00,57.0,41.0,-100.00,North,-999,-999.0,6.0,55,0.00,,,-99.99,603.000000,,2013-05-19 21:52:00,
2013-05-19 16:02:00,58.0,42.0,-100.00,North,-999,-999.0,7.0,55,0.00,,,-99.99,1145.000000,,2013-05-19 22:02:00,
2013-05-19 16:12:00,59.0,40.0,-100.00,North,-999,-999.0,8.0,50,0.00,,,-99.99,176.000000,,2013-05-19 22:12:00,
2013-05-19 16:22:00,59.0,40.0,-100.00,North,-999,-999.0,8.0,50,0.00,,,-99.99,176.000000,,2013-05-19 22:22:00,
2013-05-19 16:33:00,59.0,40.0,-100.00,North,-999,-999.0,8.0,50,0.00,,,-99.99,176.000000,,2013-05-19 22:33:00,
2013-05-19 16:42:00,59.0,40.0,-100.00,North,-999,-999.0,8.0,50,0.00,,,-99.99,176.000000,,2013-05-19 22:42:00,
2013-05-19 17:22:00,58.0,41.0,-100.00,North,-999,-999.0,9.0,53,0.07,,,-99.99,736.000000,,2013-05-19 23:22:00,
2013-05-19 17:32:00,59.0,35.0,-100.00,North,-999,-999.0,7.0,42,0.07,,,-99.99,739.000000,,2013-05-19 23:32:00,
2013-05-19 17:42:00,60.0,34.0,-100.00,North,-999,-999.0,6.0,38,0.07,,,-99.99,238.000000,,2013-05-19 23:42:00,
2013-05-19 17:52:00,60.0,36.0,-100.00,North,-999,-999.0,3.0,42,0.07,,,-99.99,673.000000,,2013-05-19 23:52:00,
2013-05-19 18:01:00,60.0,37.0,-100.00,North,-999,-999.0,6.0,42,0.07,,,-99.99,767.000000,,2013-05-20 00:01:00,
2013-05-19 18:11:00,60.0,39.0,-100.00,North,-999,-999.0,4.0,46,0.07,,,-99.99,515.000000,,2013-05-20 00:11:00,
2013-05-19 18:21:00,59.0,40.0,-100.00,North,-999,-999.0,6.0,48,0.00,,,-99.99,162.000000,,2013-05-20 00:21:00,
2013-05-19 18:31:00,57.0,38.0,-100.00,North,-999,-999.0,7.0,50,0.00,,,-99.99,50.000000,,2013-05-20 00:31:00,
2013-05-19 18:41:00,55.0,42.0,-100.00,North,-999,-999.0,7.0,63,0.00,,,-99.99,57.000000,,2013-05-20 00:41:00,
2013-05-19 18:52:00,55.0,45.0,-100.00,North,-999,-999.0,4.0,69,0.00,,,-99.99,78.000000,,2013-05-20 00:52:00,
2013-05-19 19:01:00,54.0,43.0,-100.00,North,-999,-999.0,9.0,67,0.00,,,-99.99,49.000000,,2013-05-20 01:01:00,
2013-05-19 19:11:00,53.0,42.0,-100.00,North,-999,-999.0,10.0,67,0.00,,,-99.99,36.000000,,2013-05-20 01:11:00,
2013-05-19 19:21:00,52.0,44.0,-100.00,North,-999,-999.0,9.0,72,0.00,,,-99.99,12.000000,,2013-05-20 01:21:00,
2013-05-19 19:31:00,49.0,39.0,-100.00,North,-999,-999.0,11.0,69,0.00,,,-99.99,7.000000,,2013-05-20 01:31:00,
2013-05-19 19:42:00,49.0,40.0,-100.00,North,-999,-999.0,11.0,73,0.00,,,-99.99,5.000000,,2013-05-20 01:42:00,
2013-05-19 19:52:00,49.0,40.0,-100.00,North,-999,-999.0,11.0,73,0.00,,,-99.99,5.000000,,2013-05-20 01:52:00,
2013-05-19 20:01:00,48.0,42.0,-100.00,North,-999,-999.0,8.0,80,0.00,,,-99.99,7.000000,,2013-05-20 02:01:00,
2013-05-19 20:11:00,48.0,42.0,-100.00,North,-999,-999.0,8.0,80,0.00,,,-99.99,7.000000,,2013-05-20 02:11:00,
2013-05-19 20:21:00,49.0,41.0,-100.00,North,-999,-999.0,8.0,76,0.10,,,-99.99,12.000000,,2013-05-20 02:21:00,
2013-05-19 20:31:00,47.0,41.0,-100.00,North,-999,-999.0,8.0,78,0.10,,,-99.99,17.000000,,2013-05-20 02:31:00,
2013-05-19 20:42:00,48.0,42.0,-100.00,North,-999,-999.0,9.0,79,0.10,,,-99.99,40.000000,,2013-05-20 02:42:00,
2013-05-19 20:50:00,48.0,42.0,-100.00,North,-999,-999.0,10.0,79,0.10,,,-99.99,1.000000,,2013-05-20 02:50:00,
2013-05-19 20:51:00,49.0,42.0,-100.00,North,-999,-999.0,12.0,78,0.10,,,-99.99,21.000000,,2013-05-20 02:51:00,
2013-05-19 21:01:00,48.0,42.0,-100.00,North,-999,-999.0,10.0,79,0.10,,,-99.99,8.000000,,2013-05-20 03:01:00,
2013-05-19 21:11:00,48.0,42.0,-100.00,North,-999,-999.0,10.0,79,0.10,,,-99.99,1.000000,,2013-05-20 03:11:00,
2013-05-19 21:21:00,48.0,42.0,-100.00,North,-999,-999.0,10.0,79,0.10,,,-99.99,1.000000,,2013-05-20 03:21:00,
2013-05-19 21:33:00,48.0,42.0,-100.00,North,-999,-999.0,10.0,79,0.10,,,-99.99,1.000000,,2013-05-20 03:33:00,
2013-05-19 21:42:00,48.0,42.0,-100.00,North,-999,-999.0,10.0,79,0.10,,,-99.99,1.000000,,2013-05-20 03:42:00,
2013-05-19 22:23:00,47.0,40.0,-100.00,North,-999,-999.0,10.0,75,0.00,,,-99.99,0.000000,,2013-05-20 04:23:00,
2013-05-19 22:33:00,48.0,39.0,-100.00,North,-999,-999.0,11.0,72,0.00,,,-99.99,0.000000,,2013-05-20 04:33:00,
2013-05-19 22:43:00,47.0,40.0,-100.00,North,-999,-999.0,9.0,75,0.00,,,-99.99,0.000000,,2013-05-20 04:43:00,
2013-05-19 22:52:00,47.0,40.0,-100.00,North,-999,-999.0,9.0,77,0.00,,,-99.99,0.000000,,2013-05-20 04:52:00,
2013-05-19 23:02:00,47.0,40.0,-100.00,North,-999,-999.0,9.0,78,0.00,,,-99.99,0.000000,,2013-05-20 05:02:00,
2013-05-19 23:11:00,46.0,41.0,-100.00,North,-999,-999.0,9.0,82,0.00,,,-99.99,0.000000,,2013-05-20 05:11:00,
2013-05-19 23:21:00,47.0,41.0,-100.00,North,-999,-999.0,9.0,80,0.00,,,-99.99,0.000000,,2013-05-20 05:21:00,
2013-05-19 23:32:00,47.0,42.0,-100.00,North,-999,-999.0,10.0,81,0.00,,,-99.99,0.000000,,2013-05-20 05:32:00,
2013-05-19 23:42:00,47.0,41.0,-100.00,North,-999,-999.0,9.0,82,0.00,,,-99.99,0.000000,,2013-05-20 05:42:00,
2013-05-19 23:51:00,47.0,41.0,-100.00,North,-999,-999.0,8.0,81,0.00,,,-99.99,0.000000,,2013-05-20 05:51:00,